STARLINK-32126, 60295

Orbit data source: Space-Track

STARLINK-32126, 60295 is a payload satellite owned by SpaceX/Seattle (US) in LEO that was launched on Sun, 28 Jul 2024 UTC via an FALCON 9 launch vehicle from the Air Force Eastern Test Range (AFETR). Payload-class satellites include a variety of spacecraft equipped with specific instruments for various scientific and technological missions. These include communications satellites like Starlink; space stations such as the ISS; scientific satellites like the Hubble; Earth observation satellites from companies like Planet Labs, Umbra, and HawkEye 360; GPS; miniature CubeSats for education and research; and military/defense satellites.

Loading next visibility...
Identifier
60295, 2024-132T
Orbit
LEO
Country
Flag of USUS
Related business
Manufacturer
SpaceX/Seattle
Mission
Operational Commercial Communications
Bus & Motor
STARLINK V2M, Unknown motor
Mass
730 kg wet, ~700 kg dry
Launch date (UTC)
2024-07-28 (2 years ago)
Launch vehicle
FALCON 9
Launch site
Air Force Eastern Test Range (AFETR)
Object type
Payload
Rocket body
Debris
Shape & HBR
Box + 2 Pan, 17.7 m
Radar Cross Section
33.884 m², Large (>1 m²)

Expand to show TLE details & history
Last TLE update: 1 day ago

TLE from 1 day ago
0 STARLINK-32126
1 60295U 24132T   26170.64658719  .00000321  00000-0  22104-4 0  9995
2 60295  53.1628 298.6278 0001211  94.2208 265.8932 15.31705303107170
Epoch: 2026-06-19T15:31Z
TLE epoch observation values (Epoch: 2026-06-19T15:31:05.133Z)
Latitude
Longitude
157.98384°
Altitude
471.684 km
Speed
7.631 km/s
True Right ascension
19h 54m 30s
True Declination
0° 00' 00"
Sunlit
Object was in full shadow at epoch
Visualization orbit readout
Latitude
Unknown
Longitude
Unknown
Altitude
Unknown
Speed
Unknown
Apparent Right ascension
Unknown
Apparent Declination
Unknown
Sunlit
N/A
Visualization observer readout
Local Sidereal Time
07:21:56
Azimuth
Unknown
Elevation
Unknown
Doppler factor
Unknown
Orbital elements
Apogee altitude
471.81 km
Perigee altitude
470.151 km
Semi-major axis
6,849.117 km
Eccentricity
0.00012
Inclination
53.1628°
RAAN
298.6278°
Arg. of periapsis
94.2208°
True anomaly
265.87936°
Mean anomaly
265.8932°
Eccentric anomaly
265.88628°
Mean motion
3.82905 °/min
Orbital period
94.02 mins
BSTAR
0.000022104
Loading maneuver chart data...
Computing Atmospheric mass density...
Loading historical data...
Loading historical data...
Loading historical data...
Loading historical data...
Loading historical data...
Loading historical data...
Loading historical data...

Documentation

Showing up to 5 results
|